Time,TemperatureF,DewpointF,PressureIn,WindDirection,WindDirectionDegrees,WindSpeedMPH,WindSpeedGustMPH,Humidity,HourlyPrecipIn,Conditions,Clouds,dailyrainin,SoftwareType,DateUTC
2013-07-16 00:08:00,85.0,73.0,30.14,NE,39,0.0,2.0,67,0.00,,,0.00,weatherlink.com 1.10,2013-07-16 04:08:00,
2013-07-16 00:23:00,84.6,73.0,30.14,NE,39,0.0,0.0,68,0.00,,,0.00,weatherlink.com 1.10,2013-07-16 04:23:00,
2013-07-16 00:38:00,84.1,72.0,30.14,NNE,32,1.0,3.0,68,0.00,,,0.00,weatherlink.com 1.10,2013-07-16 04:38:00,
2013-07-16 00:53:00,83.8,73.0,30.14,NNW,342,1.0,2.0,69,0.00,,,0.00,weatherlink.com 1.10,2013-07-16 04:53:00,
2013-07-16 01:08:00,83.5,72.0,30.14,North,352,1.0,3.0,69,0.00,,,0.00,weatherlink.com 1.10,2013-07-16 05:08:00,
2013-07-16 01:23:00,83.2,72.0,30.14,North,6,2.0,3.0,70,0.00,,,0.00,weatherlink.com 1.10,2013-07-16 05:23:00,
2013-07-16 01:38:00,82.8,72.0,30.14,NE,47,1.0,3.0,70,0.00,,,0.00,weatherlink.com 1.10,2013-07-16 05:38:00,
2013-07-16 01:53:00,82.6,72.0,30.14,NE,35,1.0,5.0,70,0.00,,,0.00,weatherlink.com 1.10,2013-07-16 05:53:00,
2013-07-16 02:08:00,82.2,72.0,30.14,North,359,1.0,2.0,71,0.00,,,0.00,weatherlink.com 1.10,2013-07-16 06:08:00,
2013-07-16 02:23:00,81.8,72.0,30.14,WNW,302,1.0,2.0,71,0.00,,,0.00,weatherlink.com 1.10,2013-07-16 06:23:00,
2013-07-16 02:38:00,81.5,71.0,30.14,NE,44,3.0,4.0,71,0.00,,,0.00,weatherlink.com 1.10,2013-07-16 06:38:00,
2013-07-16 03:08:00,81.0,71.0,30.14,NNW,333,2.0,5.0,72,0.00,,,0.00,weatherlink.com 1.10,2013-07-16 07:08:00,
2013-07-16 03:23:00,80.6,71.0,30.14,NNW,329,2.0,4.0,72,0.00,,,0.00,weatherlink.com 1.10,2013-07-16 07:23:00,
2013-07-16 03:38:00,80.3,71.0,30.14,NNE,12,1.0,3.0,72,0.00,,,0.00,weatherlink.com 1.10,2013-07-16 07:38:00,
2013-07-16 03:53:00,80.1,71.0,30.14,NNW,338,1.0,2.0,73,0.00,,,0.00,weatherlink.com 1.10,2013-07-16 07:53:00,
2013-07-16 04:08:00,79.8,70.0,30.14,NNW,329,1.0,3.0,73,0.00,,,0.00,weatherlink.com 1.10,2013-07-16 08:08:00,
2013-07-16 04:23:00,79.6,70.0,30.14,NNE,32,0.0,5.0,73,0.00,,,0.00,weatherlink.com 1.10,2013-07-16 08:23:00,
2013-07-16 04:38:00,79.2,70.0,30.14,NNW,330,1.0,5.0,74,0.00,,,0.00,weatherlink.com 1.10,2013-07-16 08:38:00,
2013-07-16 04:53:00,78.9,70.0,30.14,NNE,18,3.0,4.0,74,0.00,,,0.00,weatherlink.com 1.10,2013-07-16 08:53:00,
2013-07-16 05:08:00,78.7,70.0,30.15,WNW,298,2.0,3.0,74,0.00,,,0.00,weatherlink.com 1.10,2013-07-16 09:08:00,
2013-07-16 05:23:00,78.5,70.0,30.15,NNW,329,1.0,3.0,74,0.00,,,0.00,weatherlink.com 1.10,2013-07-16 09:23:00,
2013-07-16 05:38:00,78.2,69.0,30.16,NNW,333,1.0,4.0,74,0.00,,,0.00,weatherlink.com 1.10,2013-07-16 09:38:00,
2013-07-16 05:53:00,78.0,69.0,30.16,NW,322,2.0,4.0,74,0.00,,,0.00,weatherlink.com 1.10,2013-07-16 09:53:00,
2013-07-16 06:08:00,78.0,69.0,30.17,NE,42,0.0,4.0,74,0.00,,,0.00,weatherlink.com 1.10,2013-07-16 10:08:00,
2013-07-16 06:24:00,78.0,69.0,30.17,NNE,15,0.0,4.0,74,0.00,,,0.00,weatherlink.com 1.10,2013-07-16 10:24:00,
2013-07-16 06:39:00,78.2,69.0,30.17,NNW,333,0.0,3.0,74,0.00,,,0.00,weatherlink.com 1.10,2013-07-16 10:39:00,
2013-07-16 06:54:00,78.6,69.0,30.18,WNW,297,0.0,2.0,73,0.00,,,0.00,weatherlink.com 1.10,2013-07-16 10:54:00,
2013-07-16 07:09:00,79.2,69.0,30.18,SSE,165,1.0,3.0,72,0.00,,,0.00,weatherlink.com 1.10,2013-07-16 11:09:00,
2013-07-16 07:24:00,79.8,69.0,30.18,NNE,28,2.0,4.0,70,0.00,,,0.00,weatherlink.com 1.10,2013-07-16 11:24:00,
2013-07-16 07:39:00,80.8,70.0,30.18,NNW,345,2.0,4.0,69,0.00,,,0.00,weatherlink.com 1.10,2013-07-16 11:39:00,
2013-07-16 07:54:00,81.5,70.0,30.19,NNE,25,3.0,6.0,67,0.00,,,0.00,weatherlink.com 1.10,2013-07-16 11:54:00,
2013-07-16 08:09:00,82.0,70.0,30.19,East,93,5.0,6.0,66,0.00,,,0.00,weatherlink.com 1.10,2013-07-16 12:09:00,
2013-07-16 08:24:00,82.9,70.0,30.19,NW,312,2.0,5.0,65,0.00,,,0.00,weatherlink.com 1.10,2013-07-16 12:24:00,
2013-07-16 08:39:00,83.9,70.0,30.19,NW,322,3.0,5.0,63,0.00,,,0.00,weatherlink.com 1.10,2013-07-16 12:39:00,
2013-07-16 08:54:00,84.5,70.0,30.19,NNE,21,3.0,7.0,61,0.00,,,0.00,weatherlink.com 1.10,2013-07-16 12:54:00,
2013-07-16 09:09:00,85.6,70.0,30.19,NNW,339,1.0,7.0,59,0.00,,,0.00,weatherlink.com 1.10,2013-07-16 13:09:00,
2013-07-16 09:24:00,86.8,70.0,30.18,North,1,3.0,5.0,58,0.00,,,0.00,weatherlink.com 1.10,2013-07-16 13:24:00,
2013-07-16 09:39:00,88.8,71.0,30.18,North,349,1.0,5.0,55,0.00,,,0.00,weatherlink.com 1.10,2013-07-16 13:39:00,
2013-07-16 09:54:00,90.1,71.0,30.18,North,357,2.0,5.0,53,0.00,,,0.00,weatherlink.com 1.10,2013-07-16 13:54:00,
2013-07-16 10:09:00,90.7,70.0,30.18,NNW,342,4.0,5.0,50,0.00,,,0.00,weatherlink.com 1.10,2013-07-16 14:09:00,
2013-07-16 10:24:00,91.4,70.0,30.18,West,277,1.0,6.0,49,0.00,,,0.00,weatherlink.com 1.10,2013-07-16 14:24:00,
2013-07-16 10:39:00,92.3,70.0,30.18,North,349,3.0,5.0,48,0.00,,,0.00,weatherlink.com 1.10,2013-07-16 14:39:00,
2013-07-16 10:54:00,92.4,71.0,30.17,North,352,1.0,6.0,49,0.00,,,0.00,weatherlink.com 1.10,2013-07-16 14:54:00,
2013-07-16 11:09:00,92.9,69.0,30.17,NNW,339,3.0,6.0,46,0.00,,,0.00,weatherlink.com 1.10,2013-07-16 15:09:00,
2013-07-16 11:24:00,92.7,69.0,30.16,WSW,243,2.0,6.0,46,0.00,,,0.00,weatherlink.com 1.10,2013-07-16 15:24:00,
2013-07-16 11:39:00,93.5,68.0,30.17,WNW,290,5.0,9.0,44,0.00,,,0.00,weatherlink.com 1.10,2013-07-16 15:39:00,
2013-07-16 11:54:00,93.6,69.0,30.16,NNW,329,1.0,7.0,44,0.00,,,0.00,weatherlink.com 1.10,2013-07-16 15:54:00,
2013-07-16 12:09:00,94.4,67.0,30.16,NE,43,2.0,7.0,41,0.00,,,0.00,weatherlink.com 1.10,2013-07-16 16:09:00,
2013-07-16 12:24:00,94.7,68.0,30.16,NNW,335,1.0,8.0,41,0.00,,,0.00,weatherlink.com 1.10,2013-07-16 16:24:00,
2013-07-16 12:39:00,95.2,68.0,30.15,NW,307,3.0,6.0,41,0.00,,,0.00,weatherlink.com 1.10,2013-07-16 16:39:00,
2013-07-16 12:54:00,94.6,67.0,30.15,NW,326,9.0,9.0,41,0.00,,,0.00,weatherlink.com 1.10,2013-07-16 16:54:00,
2013-07-16 13:09:00,95.1,68.0,30.15,WSW,255,0.0,5.0,41,0.00,,,0.00,weatherlink.com 1.10,2013-07-16 17:09:00,
2013-07-16 13:24:00,95.0,68.0,30.15,North,358,2.0,5.0,42,0.00,,,0.00,weatherlink.com 1.10,2013-07-16 17:24:00,
2013-07-16 13:39:00,95.4,69.0,30.14,NNW,336,2.0,5.0,42,0.00,,,0.00,weatherlink.com 1.10,2013-07-16 17:39:00,
2013-07-16 13:55:00,94.6,68.0,30.14,NNW,334,2.0,6.0,42,0.00,,,0.00,weatherlink.com 1.10,2013-07-16 17:55:00,
2013-07-16 14:09:00,95.2,68.0,30.14,North,6,2.0,7.0,41,0.00,,,0.00,weatherlink.com 1.10,2013-07-16 18:09:00,
2013-07-16 14:24:00,94.6,68.0,30.14,NNE,26,3.0,9.0,42,0.00,,,0.00,weatherlink.com 1.10,2013-07-16 18:24:00,
2013-07-16 14:39:00,95.2,67.0,30.14,NW,326,3.0,6.0,39,0.00,,,0.00,weatherlink.com 1.10,2013-07-16 18:39:00,
2013-07-16 14:54:00,95.7,66.0,30.14,NW,323,1.0,7.0,38,0.00,,,0.00,weatherlink.com 1.10,2013-07-16 18:54:00,
2013-07-16 15:09:00,94.2,68.0,30.13,NW,320,1.0,5.0,42,0.00,,,0.00,weatherlink.com 1.10,2013-07-16 19:09:00,
2013-07-16 15:24:00,93.7,67.0,30.13,WNW,290,0.0,9.0,41,0.00,,,0.00,weatherlink.com 1.10,2013-07-16 19:24:00,
2013-07-16 15:40:00,93.4,67.0,30.13,North,349,3.0,6.0,42,0.00,,,0.00,weatherlink.com 1.10,2013-07-16 19:40:00,
2013-07-16 15:55:00,93.3,67.0,30.13,WNW,293,4.0,7.0,42,0.00,,,0.00,weatherlink.com 1.10,2013-07-16 19:55:00,
2013-07-16 16:10:00,94.4,68.0,30.13,ENE,68,2.0,5.0,42,0.00,,,0.00,weatherlink.com 1.10,2013-07-16 20:10:00,
2013-07-16 16:25:00,95.8,68.0,30.12,NNW,328,1.0,4.0,40,0.00,,,0.00,weatherlink.com 1.10,2013-07-16 20:25:00,
2013-07-16 16:40:00,94.9,66.0,30.12,NNW,338,1.0,5.0,39,0.00,,,0.00,weatherlink.com 1.10,2013-07-16 20:40:00,
2013-07-16 16:55:00,93.5,67.0,30.12,NW,306,1.0,5.0,42,0.00,,,0.00,weatherlink.com 1.10,2013-07-16 20:55:00,
2013-07-16 17:10:00,93.1,67.0,30.12,NE,41,3.0,4.0,42,0.00,,,0.00,weatherlink.com 1.10,2013-07-16 21:10:00,
2013-07-16 17:25:00,92.5,68.0,30.11,NW,304,1.0,4.0,44,0.00,,,0.00,weatherlink.com 1.10,2013-07-16 21:25:00,
2013-07-16 17:40:00,92.1,67.0,30.11,WNW,293,0.0,3.0,44,0.00,,,0.00,weatherlink.com 1.10,2013-07-16 21:40:00,
2013-07-16 17:55:00,91.7,67.0,30.11,NNW,345,2.0,4.0,45,0.00,,,0.00,weatherlink.com 1.10,2013-07-16 21:55:00,
2013-07-16 18:10:00,91.5,67.0,30.11,NW,321,2.0,9.0,44,0.00,,,0.00,weatherlink.com 1.10,2013-07-16 22:10:00,
2013-07-16 18:25:00,91.8,68.0,30.11,NE,53,3.0,6.0,45,0.00,,,0.00,weatherlink.com 1.10,2013-07-16 22:25:00,
2013-07-16 18:40:00,91.8,66.0,30.11,NNE,28,1.0,6.0,42,0.00,,,0.00,weatherlink.com 1.10,2013-07-16 22:40:00,
2013-07-16 18:55:00,91.6,67.0,30.11,NW,313,1.0,4.0,44,0.00,,,0.00,weatherlink.com 1.10,2013-07-16 22:55:00,
2013-07-16 19:10:00,91.5,67.0,30.12,NNW,332,2.0,5.0,44,0.00,,,0.00,weatherlink.com 1.10,2013-07-16 23:10:00,
2013-07-16 19:25:00,91.3,67.0,30.12,NNW,340,0.0,4.0,45,0.00,,,0.00,weatherlink.com 1.10,2013-07-16 23:25:00,
2013-07-16 19:40:00,90.9,67.0,30.12,NW,311,1.0,4.0,45,0.00,,,0.00,weatherlink.com 1.10,2013-07-16 23:40:00,
2013-07-16 19:55:00,90.6,66.0,30.13,WNW,290,1.0,5.0,45,0.00,,,0.00,weatherlink.com 1.10,2013-07-16 23:55:00,
2013-07-16 20:10:00,90.1,67.0,30.12,NW,326,1.0,4.0,46,0.00,,,0.00,weatherlink.com 1.10,2013-07-17 00:10:00,
2013-07-16 20:25:00,89.6,67.0,30.13,NW,326,0.0,2.0,47,0.00,,,0.00,weatherlink.com 1.10,2013-07-17 00:25:00,
2013-07-16 20:40:00,89.2,67.0,30.13,NW,321,0.0,2.0,48,0.00,,,0.00,weatherlink.com 1.10,2013-07-17 00:40:00,
2013-07-16 20:55:00,88.5,67.0,30.13,NW,321,0.0,1.0,49,0.00,,,0.00,weatherlink.com 1.10,2013-07-17 00:55:00,
2013-07-16 21:10:00,87.8,67.0,30.14,NW,321,0.0,1.0,50,0.00,,,0.00,weatherlink.com 1.10,2013-07-17 01:10:00,
2013-07-16 21:25:00,87.4,67.0,30.14,NW,319,0.0,0.0,50,0.00,,,0.00,weatherlink.com 1.10,2013-07-17 01:25:00,
2013-07-16 21:40:00,86.6,66.0,30.14,NW,319,0.0,1.0,51,0.00,,,0.00,weatherlink.com 1.10,2013-07-17 01:40:00,
2013-07-16 21:55:00,85.7,66.0,30.15,NW,319,0.0,0.0,52,0.00,,,0.00,weatherlink.com 1.10,2013-07-17 01:55:00,
2013-07-16 22:10:00,85.3,67.0,30.15,NW,319,0.0,0.0,54,0.00,,,0.00,weatherlink.com 1.10,2013-07-17 02:10:00,
2013-07-16 22:25:00,84.8,67.0,30.15,NW,319,0.0,0.0,55,0.00,,,0.00,weatherlink.com 1.10,2013-07-17 02:25:00,
2013-07-16 22:40:00,84.4,68.0,30.15,NW,319,0.0,0.0,58,0.00,,,0.00,weatherlink.com 1.10,2013-07-17 02:40:00,
2013-07-16 22:55:00,84.6,68.0,30.15,NW,319,0.0,0.0,58,0.00,,,0.00,weatherlink.com 1.10,2013-07-17 02:55:00,
2013-07-16 23:10:00,84.6,69.0,30.15,NW,319,0.0,0.0,59,0.00,,,0.00,weatherlink.com 1.10,2013-07-17 03:10:00,
2013-07-16 23:25:00,84.9,69.0,30.15,NW,320,0.0,1.0,59,0.00,,,0.00,weatherlink.com 1.10,2013-07-17 03:25:00,
2013-07-16 23:40:00,85.6,69.0,30.15,NNW,328,0.0,1.0,58,0.00,,,0.00,weatherlink.com 1.10,2013-07-17 03:40:00,
2013-07-16 23:55:00,85.2,69.0,30.15,NNW,329,0.0,1.0,59,0.00,,,0.00,weatherlink.com 1.10,2013-07-17 03:55:00,